Clintonville, WI

7:12 PM CST on November 15, 2019 (GMT -0600)
Clintonville Municipal

Weather History for KCLI - October, 2019

Change the Weather History Date:

Wednesday, October 23, 2019

  Actual Average Record
Temperature  
Mean Temperature 44 °F -  
Max Temperature 49 °F 55 °F 82 °F (1963)
Min Temperature 39 °F 32 °F 18 °F (1969)
Degree Days  
Heating Degree Days 21    
Moisture  
Dew Point 33 °F    
Average Humidity 66    
Maximum Humidity 78    
Minimum Humidity 52    
Precipitation  
Precipitation 0.00 in - - ()
Sea Level Pressure  
Sea Level Pressure 29.82 in    
Wind  
Wind Speed 10 mph (West)    
Max Wind Speed 15 mph    
Max Gust Speed 25 mph    
Visibility 10 miles    
Events      
Averages and records for this station are not official NWS values.
T = Trace of Precipitation, MM = Missing Value Source: NWS Daily Summary

Daily Weather History Graph

Daily Weather History Graph

Search for Another Location

Airport or City:

Astronomy

Oct. 23, 2019 Rise Set
Actual Time 7:20 AM CDT 5:57 PM CDT
Civil Twilight 6:50 AM CDT 6:27 PM CDT
Nautical Twilight 6:16 AM CDT 7:01 PM CDT
Astronomical Twilight 5:42 AM CDT 7:34 PM CDT
Moon 1:20 AM CDT (10/23) 4:03 PM CDT (10/23)
Length of Visible Light 11h 36m
Length of Day
10h 37m
Waning Crescent, 26% of the Moon is Illuminated
Oct 23
Waning Crescent
Oct 27
New
Nov 4
First Quarter
Nov 12
Full
Nov 19
Last Quarter

Hourly Weather History & Observations

Time (CDT) Temp. Windchill Dew Point Humidity Pressure Visibility Wind Dir Wind Speed Gust Speed Precip Events Conditions
12:35 AM 42.3 °F 35.9 °F 33.8 °F 72% 29.60 in 10.0 mi WSW 11.5 mph 16.1 mph N/A   Overcast
12:55 AM 42.3 °F 35.1 °F 33.8 °F 72% 29.60 in 10.0 mi West 13.8 mph 19.6 mph N/A   Overcast
1:15 AM 42.1 °F 35.2 °F 34.0 °F 73% 29.61 in 10.0 mi West 12.7 mph 17.3 mph N/A   Overcast
1:35 AM 42.4 °F 36.1 °F 34.0 °F 72% 29.61 in 10.0 mi West 11.5 mph 20.7 mph N/A   Overcast
1:55 AM 42.4 °F 36.1 °F 34.0 °F 72% 29.62 in 10.0 mi West 11.5 mph 16.1 mph N/A   Overcast
2:15 AM 42.6 °F 35.6 °F 33.8 °F 71% 29.62 in 10.0 mi West 13.8 mph 17.3 mph N/A   Overcast
2:35 AM 42.8 °F 35.8 °F 33.8 °F 70% 29.63 in 10.0 mi WSW 13.8 mph 18.4 mph N/A   Overcast
2:55 AM 42.8 °F 36.6 °F 33.8 °F 70% 29.64 in 10.0 mi West 11.5 mph 17.3 mph N/A   Overcast
3:15 AM 42.8 °F 37.0 °F 33.4 °F 70% 29.63 in 10.0 mi West 10.4 mph 20.7 mph N/A   Overcast
3:35 AM 42.8 °F 35.4 °F 32.9 °F 68% 29.64 in 10.0 mi West 15.0 mph 20.7 mph N/A   Overcast
3:55 AM 42.4 °F 37.5 °F 32.2 °F 67% 29.64 in 10.0 mi West 8.1 mph - N/A   Overcast
4:15 AM 41.4 °F 35.2 °F 32.0 °F 69% 29.64 in 10.0 mi West 10.4 mph - N/A   Mostly Cloudy
4:35 AM 41.0 °F 35.8 °F 32.0 °F 70% 29.65 in 10.0 mi West 8.1 mph - N/A   Mostly Cloudy
4:55 AM 41.2 °F 35.5 °F 32.2 °F 70% 29.67 in 10.0 mi WSW 9.2 mph - N/A   Mostly Cloudy
5:15 AM 41.2 °F 35.0 °F 32.4 °F 71% 29.68 in 10.0 mi West 10.4 mph 17.3 mph N/A   Overcast
5:55 AM 41.9 °F 34.3 °F 32.0 °F 68% 29.69 in 10.0 mi West 15.0 mph 21.9 mph N/A   Overcast
6:35 AM 41.9 °F 36.3 °F 32.5 °F 69% 29.71 in 10.0 mi West 9.2 mph - N/A   Overcast
6:55 AM 41.9 °F 35.4 °F 32.5 °F 69% 29.71 in 10.0 mi West 11.5 mph 17.3 mph N/A   Overcast
7:15 AM 42.1 °F 35.2 °F 32.0 °F 67% 29.72 in 10.0 mi West 12.7 mph 19.6 mph N/A   Overcast
7:35 AM 42.1 °F 35.2 °F 32.0 °F 67% 29.73 in 10.0 mi West 12.7 mph 18.4 mph N/A   Overcast
7:55 AM 41.9 °F 34.3 °F 30.9 °F 65% 29.74 in 10.0 mi West 15.0 mph 20.7 mph N/A   Overcast
8:35 AM 42.1 °F 35.2 °F 30.6 °F 64% 29.76 in 10.0 mi West 12.7 mph 25.3 mph N/A   Overcast
8:55 AM 42.1 °F 35.2 °F 30.9 °F 65% 29.77 in 10.0 mi West 12.7 mph 17.3 mph N/A   Overcast
9:15 AM 42.8 °F 37.0 °F 31.3 °F 64% 29.79 in 10.0 mi West 10.4 mph 17.3 mph N/A   Overcast
9:35 AM 43.0 °F 37.2 °F 32.0 °F 65% 29.79 in 10.0 mi West 10.4 mph - N/A   Overcast
9:55 AM 43.2 °F 37.0 °F 32.4 °F 66% 29.80 in 10.0 mi West 11.5 mph - N/A   Overcast
10:15 AM 43.2 °F 37.9 °F 32.4 °F 66% 29.81 in 10.0 mi West 9.2 mph - N/A   Overcast
10:35 AM 43.3 °F 37.7 °F 32.5 °F 66% 29.82 in 10.0 mi West 10.4 mph - N/A   Overcast
10:55 AM 43.5 °F 38.3 °F 33.4 °F 68% 29.82 in 10.0 mi WSW 9.2 mph 18.4 mph N/A   Overcast
11:35 AM 43.9 °F 37.9 °F 33.6 °F 67% 29.83 in 10.0 mi West 11.5 mph 17.3 mph N/A   Overcast
11:55 AM 44.2 °F 38.4 °F 33.3 °F 65% 29.84 in 10.0 mi West 11.5 mph - N/A   Overcast
12:15 PM 44.4 °F 39.0 °F 33.4 °F 65% 29.84 in 10.0 mi West 10.4 mph 16.1 mph N/A   Overcast
12:35 PM - - - N/A% 29.84 in - North - - N/A   Unknown
12:55 PM 45.0 °F 39.7 °F 32.4 °F 61% 29.85 in 10.0 mi West 10.4 mph 18.4 mph N/A   Overcast
1:15 PM 45.5 °F 40.8 °F 32.5 °F 61% 29.85 in 10.0 mi West 9.2 mph - N/A   Overcast
1:35 PM 46.8 °F - 32.7 °F 58% 29.85 in 10.0 mi West 11.5 mph 20.7 mph N/A   Overcast
1:55 PM 46.4 °F 42.4 °F 32.4 °F 58% 29.85 in 10.0 mi West 8.1 mph - N/A   Overcast
2:15 PM 47.8 °F - 32.5 °F 55% 29.85 in 10.0 mi West 11.5 mph 17.3 mph N/A   Mostly Cloudy
2:35 PM 46.9 °F - 32.4 °F 57% 29.84 in 10.0 mi West 9.2 mph - N/A   Scattered Clouds
2:55 PM 48.4 °F - 32.7 °F 55% 29.84 in 10.0 mi WNW 10.4 mph - N/A   Clear
3:15 PM 49.1 °F - 32.5 °F 53% 29.84 in 10.0 mi West 8.1 mph - N/A   Clear
3:35 PM 48.6 °F - 32.9 °F 55% 29.86 in 10.0 mi West 9.2 mph - N/A   Clear
3:55 PM 49.3 °F - 32.4 °F 52% 29.87 in 10.0 mi West 10.4 mph - N/A   Scattered Clouds
4:15 PM 47.7 °F - 32.4 °F 55% 29.87 in 10.0 mi West 5.8 mph - N/A   Scattered Clouds
4:35 PM 47.8 °F - 32.7 °F 56% 29.88 in 10.0 mi West 9.2 mph - N/A   Clear
4:55 PM 46.9 °F - 32.9 °F 58% 29.88 in 10.0 mi NW 8.1 mph - N/A   Clear
5:15 PM 46.4 °F 42.4 °F 32.9 °F 59% 29.89 in 10.0 mi NW 8.1 mph - N/A   Clear
5:35 PM 45.5 °F 41.3 °F 33.1 °F 62% 29.91 in 10.0 mi NW 8.1 mph - N/A   Clear
5:55 PM 45.3 °F 42.3 °F 33.1 °F 62% 29.91 in 10.0 mi NW 5.8 mph - N/A   Clear
6:15 PM 44.8 °F 41.6 °F 32.9 °F 63% 29.93 in 10.0 mi NW 5.8 mph - N/A   Scattered Clouds
6:35 PM 44.6 °F 40.7 °F 32.5 °F 63% 29.94 in 10.0 mi NNW 6.9 mph - N/A   Mostly Cloudy
6:55 PM 44.1 °F 40.1 °F 32.2 °F 63% 29.94 in 10.0 mi NNW 6.9 mph - N/A   Overcast
7:15 PM 43.3 °F 40.7 °F 32.4 °F 65% 29.95 in 10.0 mi NW 4.6 mph - N/A   Overcast
7:35 PM 42.8 °F 39.3 °F 32.9 °F 68% 29.97 in 10.0 mi WNW 5.8 mph - N/A   Overcast
7:55 PM 42.8 °F 40.1 °F 32.7 °F 68% 29.98 in 10.0 mi West 4.6 mph - N/A   Overcast
8:15 PM 42.8 °F 40.1 °F 32.9 °F 68% 29.99 in 10.0 mi WSW 4.6 mph - N/A   Overcast
8:35 PM 42.3 °F 40.5 °F 32.9 °F 69% 29.99 in 10.0 mi West 3.5 mph - N/A   Overcast
8:55 PM 41.9 °F 40.0 °F 33.1 °F 71% 29.99 in 10.0 mi West 3.5 mph - N/A   Mostly Cloudy
9:35 PM 41.9 °F 40.0 °F 33.1 °F 71% 30.00 in 10.0 mi West 3.5 mph - N/A   Overcast
9:55 PM 41.5 °F 38.6 °F 33.3 °F 72% 30.00 in 10.0 mi West 4.6 mph - N/A   Overcast
10:15 PM 41.5 °F 39.6 °F 33.4 °F 73% 30.00 in 10.0 mi WNW 3.5 mph - N/A   Overcast
10:35 PM 40.3 °F 36.3 °F 32.5 °F 74% 30.00 in 10.0 mi WNW 5.8 mph - N/A   Mostly Cloudy
10:55 PM 39.6 °F 36.3 °F 32.5 °F 76% 30.01 in 10.0 mi WNW 4.6 mph - N/A   Clear
11:15 PM 39.4 °F 35.2 °F 32.5 °F 76% 30.01 in 10.0 mi WNW 5.8 mph - N/A   Clear
11:35 PM 39.2 °F 35.9 °F 32.9 °F 78% 30.01 in 10.0 mi WNW 4.6 mph - N/A   Clear
11:55 PM 39.6 °F 35.4 °F 32.9 °F 77% 30.01 in 10.0 mi West 5.8 mph - N/A   Clear